DMSP 5D-3 F18 (USA 210)

Last updated on Wed Sep 23 2026 00:03:10 GMT+0000 (Coordinated Universal Time)

1 35951U 09057A 26265.58595490 .00000137 00000+0 94097-4 0 9993 2 35951 98.9160 246.1971 0010760 340.6927 19.3837 14.14943876873368
UTC large
Height (km)
Speed (km/s)
/
Latitude / Longitude
Inclination (degrees)
Orbital Period (minutes)
Azimuth
Elevation
Range (km)
Doppler Factor

Next 0 passes for location: London (51.5072 / 0.1276)

No passes found over London.
DMSP 5D-3 F18 (USA 210)